Location: Kile Knob Observatory
(38.6083°N, 79.4792°W)
Time: 15:33:39
(UTC-04:00)

Tiangong 2 - Pass Details

Date: 28 May 2019
Orbit: 376 x 388 km, 42.8° (Epoch: 24 June)

Event Time Altitude Azimuth Distance (km) Brightness Sun altitude
Rises 23:09:26 0° 286° (WNW) 2,231 5.7 -23.0°
Reaches altitude 10° 23:11:36 10° 277° (W) 1,377 4.3 -23.2°
Enters shadow 23:12:30 17° 268° (W) 1,054 3.6 -23.3°
